Time,TemperatureF,DewpointF,PressureIn,WindDirection,WindDirectionDegrees,WindSpeedMPH,WindSpeedGustMPH,Humidity,HourlyPrecipIn,Conditions,Clouds,dailyrainin,SoftwareType,DateUTC
2013-01-05 00:00:00,30.1,27.0,30.01,West,277,19.0,22.0,88,0.00,,,0.00,Wunderground v.1.15,2013-01-05 05:00:00,
2013-01-05 00:30:00,30.1,26.4,30.02,West,265,17.0,22.0,86,0.00,,,0.00,Wunderground v.1.15,2013-01-05 05:30:00,
2013-01-05 01:00:00,29.8,26.1,30.03,WNW,285,16.0,16.0,86,0.00,,,0.00,Wunderground v.1.15,2013-01-05 06:00:00,
2013-01-05 01:30:00,29.4,26.0,30.04,WSW,258,14.0,14.0,87,0.00,,,0.00,Wunderground v.1.15,2013-01-05 06:30:00,
2013-01-05 02:00:00,29.3,25.4,30.06,West,262,25.0,25.0,85,0.00,,,0.00,Wunderground v.1.15,2013-01-05 07:00:00,
2013-01-05 02:30:00,29.4,25.4,30.07,WNW,284,11.0,12.0,85,0.00,,,0.00,Wunderground v.1.15,2013-01-05 07:30:00,
2013-01-05 03:00:00,29.5,25.8,30.09,NW,309,6.0,6.0,86,0.00,,,0.00,Wunderground v.1.15,2013-01-05 08:00:00,
2013-01-05 03:30:00,29.3,25.4,30.10,WNW,284,7.0,7.0,85,0.00,,,0.00,Wunderground v.1.15,2013-01-05 08:30:00,
2013-01-05 04:00:00,29.4,24.9,30.11,WSW,254,15.0,15.0,83,0.00,,,0.00,Wunderground v.1.15,2013-01-05 09:00:00,
2013-01-05 04:30:00,29.3,25.1,30.12,West,267,9.0,9.0,84,0.00,,,0.00,Wunderground v.1.15,2013-01-05 09:30:00,
2013-01-05 05:00:00,29.3,25.1,30.14,West,267,9.0,9.0,84,0.00,,,0.00,Wunderground v.1.15,2013-01-05 10:00:00,
2013-01-05 05:30:00,29.4,25.2,30.15,WSW,251,8.0,8.0,84,0.00,,,0.00,Wunderground v.1.15,2013-01-05 10:30:00,
2013-01-05 06:00:00,29.4,25.4,30.16,West,259,8.0,8.0,85,0.00,,,0.00,Wunderground v.1.15,2013-01-05 11:00:00,
2013-01-05 06:30:00,29.5,25.5,30.19,West,264,9.0,9.0,85,0.00,,,0.00,Wunderground v.1.15,2013-01-05 11:30:00,
2013-01-05 07:00:00,29.3,25.4,30.19,WSW,257,9.0,9.0,85,0.00,,,0.00,Wunderground v.1.15,2013-01-05 12:00:00,
2013-01-05 07:30:00,29.1,25.4,30.20,West,259,9.0,9.0,86,0.00,,,0.00,Wunderground v.1.15,2013-01-05 12:30:00,
2013-01-05 08:00:00,28.7,25.0,30.21,West,259,5.0,9.0,86,0.00,,,0.00,Wunderground v.1.15,2013-01-05 13:00:00,
2013-01-05 08:30:00,29.0,25.3,30.23,WSW,252,6.0,6.0,86,0.00,,,0.00,Wunderground v.1.15,2013-01-05 13:30:00,
2013-01-05 09:00:00,29.3,25.6,30.24,West,273,7.0,7.0,86,0.00,,,0.00,Wunderground v.1.15,2013-01-05 14:00:00,
2013-01-05 09:30:00,29.6,25.9,30.25,West,265,7.0,9.0,86,0.00,,,0.00,Wunderground v.1.15,2013-01-05 14:30:00,
2013-01-05 10:00:00,29.6,25.9,30.26,WSW,255,7.0,9.0,86,0.00,,,0.00,Wunderground v.1.15,2013-01-05 15:00:00,
2013-01-05 10:30:00,30.3,26.0,30.27,West,262,8.0,8.0,84,0.00,,,0.00,Wunderground v.1.15,2013-01-05 15:30:00,
2013-01-05 11:00:00,31.0,26.1,30.27,WSW,250,6.0,9.0,82,0.00,,,0.00,Wunderground v.1.15,2013-01-05 16:00:00,
2013-01-05 11:30:00,31.3,25.8,30.25,WSW,242,7.0,9.0,80,0.00,,,0.00,Wunderground v.1.15,2013-01-05 16:30:00,
2013-01-05 12:00:00,31.9,25.2,30.24,West,259,7.0,9.0,76,0.00,,,0.00,Wunderground v.1.15,2013-01-05 17:00:00,
2013-01-05 12:30:00,31.9,25.5,30.22,West,271,8.0,8.0,77,0.00,,,0.00,Wunderground v.1.15,2013-01-05 17:30:00,
2013-01-05 13:00:00,32.1,26.3,30.20,WSW,257,5.0,5.0,79,0.00,,,0.00,Wunderground v.1.15,2013-01-05 18:00:00,
2013-01-05 13:30:00,31.9,27.3,30.20,WSW,240,5.0,9.0,83,0.00,,,0.00,Wunderground v.1.15,2013-01-05 18:30:00,
2013-01-05 14:00:00,32.1,26.6,30.19,WSW,243,5.0,9.0,80,0.00,,,0.00,Wunderground v.1.15,2013-01-05 19:00:00,
2013-01-05 14:30:00,31.7,25.9,30.19,West,260,8.0,8.0,79,0.00,,,0.00,Wunderground v.1.15,2013-01-05 19:30:00,
2013-01-05 15:00:00,31.8,26.0,30.19,West,262,5.0,5.0,79,0.00,,,0.00,Wunderground v.1.15,2013-01-05 20:00:00,
2013-01-05 15:30:00,31.9,25.5,30.20,WSW,247,5.0,5.0,77,0.00,,,0.00,Wunderground v.1.15,2013-01-05 20:30:00,
2013-01-05 16:00:00,31.4,25.3,30.19,WSW,248,2.0,2.0,78,0.00,,,0.00,Wunderground v.1.15,2013-01-05 21:00:00,
2013-01-05 16:30:00,31.3,25.2,30.17,SW,219,5.0,9.0,78,0.00,,,0.00,Wunderground v.1.15,2013-01-05 21:30:00,
2013-01-05 17:00:00,30.4,23.7,30.15,SW,218,2.0,9.0,76,0.00,,,0.00,Wunderground v.1.15,2013-01-05 22:00:00,
2013-01-05 17:30:00,29.8,23.5,30.16,SW,218,4.0,4.0,77,0.00,,,0.00,Wunderground v.1.15,2013-01-05 22:30:00,
2013-01-05 18:00:00,29.0,23.6,30.15,SW,215,5.0,5.0,80,0.00,,,0.00,Wunderground v.1.15,2013-01-05 23:00:00,
2013-01-05 18:30:00,29.1,23.4,30.15,SW,217,6.0,6.0,79,0.00,,,0.00,Wunderground v.1.15,2013-01-05 23:30:00,
2013-01-05 19:00:00,28.1,23.0,30.15,SW,217,5.0,5.0,81,0.00,,,0.00,Wunderground v.1.15,2013-01-06 00:00:00,
2013-01-05 19:30:00,28.7,23.3,30.13,SSW,202,7.0,7.0,80,0.00,,,0.00,Wunderground v.1.15,2013-01-06 00:30:00,
2013-01-05 20:00:00,27.8,23.0,30.12,SSW,205,6.0,9.0,82,0.00,,,0.00,Wunderground v.1.15,2013-01-06 01:00:00,
2013-01-05 20:30:00,27.9,22.8,30.12,SW,215,8.0,9.0,81,0.00,,,0.00,Wunderground v.1.15,2013-01-06 01:30:00,
2013-01-05 21:00:00,27.9,23.1,30.12,SW,217,8.0,10.0,82,0.00,,,0.00,Wunderground v.1.15,2013-01-06 02:00:00,
2013-01-05 21:30:00,27.8,23.3,30.07,SSW,194,6.0,9.0,83,0.00,,,0.00,Wunderground v.1.15,2013-01-06 02:30:00,
2013-01-05 22:00:00,27.9,23.4,30.07,SSW,206,8.0,13.0,83,0.00,,,0.00,Wunderground v.1.15,2013-01-06 03:00:00,
2013-01-05 22:30:00,28.2,24.0,30.06,SSW,211,9.0,9.0,84,0.00,,,0.00,Wunderground v.1.15,2013-01-06 03:30:00,
2013-01-05 23:00:00,29.0,24.2,30.06,SW,235,8.0,10.0,82,0.00,,,0.00,Wunderground v.1.15,2013-01-06 04:00:00,
2013-01-05 23:30:00,28.6,24.7,30.05,SW,215,9.0,9.0,85,0.00,,,0.00,Wunderground v.1.15,2013-01-06 04:30:00,